This is the latest recevied weather packets stored in our database for station/object YO6RK-13. If no packets are shown the sender has not sent any weather packets the latest 10 day(s).
| Time | Temp. | Humidity | Pressure | Rain* | Wind** | Luminosity | Snow |
|---|---|---|---|---|---|---|---|
| 1777472727 | 16.11° C | 40% | 1014.3 hPa | 0 mm | - | - | - |
| 1777471232 | 15.56° C | 40% | 1014.4 hPa | 0 mm | - | - | - |
| 1777470339 | 16.11° C | 41% | 1014.5 hPa | 0 mm | - | - | - |
| 1777468218 | 15.56° C | 38% | 1014.7 hPa | 0 mm | - | - | - |
| 1777466139 | 14.44° C | 42% | 1015 hPa | 0 mm | - | - | - |
| 1777465830 | 14.44° C | 43% | 1015 hPa | 0 mm | - | - | - |
| 1777465521 | 13.89° C | 43% | 1015.1 hPa | 0 mm | - | - | - |
| 1777465236 | 13.89° C | 44% | 1015.2 hPa | 0 mm | - | - | - |
| 1777459232 | 13.89° C | 47% | 1015.8 hPa | 0 mm | - | - | - |
| 1777458616 | 13.33° C | 47% | 1016 hPa | 0 mm | - | - | - |
| 1777458029 | 12.78° C | 49% | 1016.2 hPa | 0 mm | - | - | - |
| 1777455938 | 11.67° C | 49% | 1016.1 hPa | 0 mm | - | - | - |
| 1777455040 | 11.67° C | 51% | 1016.2 hPa | 0 mm | - | - | - |
| 1777453221 | 11.11° C | 51% | 1016.6 hPa | 0 mm | - | - | - |
| 1777448128 | 9.44° C | 51% | 1016.8 hPa | 0 mm | - | - | - |
| 1777447217 | 8.89° C | 52% | 1016.8 hPa | 0 mm | - | - | - |
| 1777442415 | 7.78° C | 60% | 1016.6 hPa | 0 mm | - | - | - |
| 1777440628 | 7.22° C | 68% | 1016.6 hPa | 0 mm | - | - | - |
| 1777438838 | 6.67° C | 71% | 1016.4 hPa | 0 mm | - | - | - |
| 1777438228 | 6.67° C | 74% | 1016.4 hPa | 0 mm | - | - | - |
| 1777436726 | 6.11° C | 75% | 1016.2 hPa | 0 mm | - | - | - |
| 1777436133 | 6.67° C | 72% | 1016.2 hPa | 0 mm | - | - | - |
| 1777435518 | 6.67° C | 70% | 1016.3 hPa | 0 mm | - | - | - |
| 1777432820 | 6.67° C | 64% | 1016.1 hPa | 0 mm | - | - | - |
| 1777430731 | 6.67° C | 60% | 1016.1 hPa | 0 mm | - | - | - |
* Rain latest hour (hover to see other rain measurements)
** Current wind speed in m/s (hover to see current wind gust speed)